Weather History for Key West, FL

Change the Weather History Date:

Sunday, November 27, 2011

  Actual Average Record
Temperature  
Mean Temperature 77 °F 74 °F  
Max Temperature 81 °F 78 °F 87 °F (1948)
Min Temperature 72 °F 70 °F 54 °F (1949)
Degree Days  
Heating Degree Days 0 0  
Month to date heating degree days 0 0  
Since 1 July heating degree days 0 0  
Cooling Degree Days 12 9  
Month to date cooling degree days 324 298  
Year to date cooling degree days 4837 4506  
Growing Degree Days 26 (Base 50)    
Moisture  
Dew Point 66 °F    
Average Humidity 66    
Maximum Humidity 69    
Minimum Humidity 62    
Precipitation  
Precipitation T in 0.07 in 1.42 in (1890)
Month to date precipitation 0.15 2.06  
Year to date precipitation 42.25 37.37  
Snow  
Snow 0.00 in - - ()
Month to date snowfall 0.0  
Since 1 July snowfall 0.0  
Since 1 September snowfall 0.0  
Snow Depth 0.00 in    
Sea Level Pressure  
Sea Level Pressure 30.01 in    
Wind  
Wind Speed 15 mph (ESE)    
Max Wind Speed 21 mph    
Max Gust Speed 26 mph    
Visibility 10 miles    
Events Rain    
T = Trace of Precipitation, MM = Missing Value Source: NWS Daily Summary

Daily Weather History Graph

Daily Weather History Graph

Search for Another Location

Airport:

Trip Planner

Search our weather history database for the weather conditions in past years. The results will help you decide how hot, cold, wet, or windy it might be!

Date:

Astronomy

Nov. 27, 2011 Rise Set
Actual Time 6:51 AM EST 5:37 PM EST
Civil Twilight 6:26 AM EST 6:02 PM EST
Nautical Twilight 5:58 AM EST 6:30 PM EST
Astronomical Twilight 5:31 AM EST 6:57 PM EST
Moon 9:12 AM EST (11/27) 8:16 PM EST (11/27)
Length of Visible Light 11h 35m
Length of Day
10h 46m
Waxing Crescent, 8% of the Moon is Illuminated
Nov 27
Waxing Crescent
Dec 2
First Quarter
Dec 10
Full
Dec 17
Last Quarter
Dec 24
New

Hourly Weather History & Observations

Time (EST) Temp. Heat Index Dew Point Humidity Pressure Visibility Wind Dir Wind Speed Gust Speed Precip Events Conditions
12:08 AM 73.4 °F - 68.0 °F 83% 30.07 in 10.0 mi ESE 13.8 mph - 0.07 in Rain Light Rain
12:53 AM 75.0 °F - 66.0 °F 73% 30.05 in 10.0 mi East 17.3 mph 24.2 mph 0.07 in   Overcast
1:53 AM 75.9 °F - 64.9 °F 69% 30.04 in 10.0 mi East 16.1 mph - N/A   Clear
2:53 AM 75.9 °F - 64.0 °F 67% 30.02 in 10.0 mi East 15.0 mph - N/A   Scattered Clouds
3:53 AM 75.0 °F - 64.0 °F 69% 30.01 in 10.0 mi East 12.7 mph - N/A   Clear
4:53 AM 75.9 °F - 64.0 °F 67% 30.01 in 10.0 mi East 12.7 mph 20.7 mph N/A   Overcast
5:53 AM 75.9 °F - 64.0 °F 67% 30.01 in 10.0 mi East 11.5 mph - N/A   Overcast
6:53 AM 75.9 °F - 64.9 °F 69% 30.02 in 10.0 mi East 12.7 mph 19.6 mph N/A   Overcast
7:53 AM 75.0 °F - 64.9 °F 71% 30.04 in 10.0 mi East 12.7 mph - 0.00 in Rain Light Rain
8:53 AM 78.1 °F - 66.0 °F 66% 30.05 in 10.0 mi East 13.8 mph - 0.00 in   Partly Cloudy
9:53 AM 78.8 °F - 64.4 °F 61% 30.05 in 10.0 mi East 18.4 mph - N/A   Partly Cloudy
10:53 AM 80.1 °F 82.1 °F 66.0 °F 62% 30.05 in 10.0 mi East 17.3 mph 24.2 mph N/A   Clear
11:53 AM 80.1 °F 82.3 °F 66.9 °F 64% 30.03 in 10.0 mi East 16.1 mph 24.2 mph N/A   Partly Cloudy
12:53 PM 80.1 °F 82.1 °F 66.0 °F 62% 30.01 in 10.0 mi East 16.1 mph 26.5 mph N/A   Mostly Cloudy
1:53 PM 80.1 °F 82.7 °F 68.0 °F 67% 29.98 in 10.0 mi East 16.1 mph 20.7 mph N/A   Clear
2:53 PM 80.1 °F 82.3 °F 66.9 °F 64% 29.97 in 10.0 mi East 16.1 mph 23.0 mph N/A   Clear
3:53 PM 79.0 °F - 66.9 °F 66% 29.96 in 10.0 mi ESE 17.3 mph - N/A   Clear
4:53 PM 78.1 °F - 66.9 °F 68% 29.96 in 10.0 mi ESE 15.0 mph - N/A   Clear
5:53 PM 77.0 °F - 66.0 °F 69% 29.96 in 10.0 mi ESE 15.0 mph - N/A   Clear
6:53 PM 77.0 °F - 66.0 °F 69% 29.97 in 10.0 mi ESE 15.0 mph 20.7 mph N/A   Partly Cloudy
7:53 PM 77.0 °F - 66.0 °F 69% 29.98 in 10.0 mi ESE 15.0 mph - N/A   Clear
8:53 PM 77.0 °F - 66.0 °F 69% 29.99 in 10.0 mi ESE 15.0 mph - N/A   Clear
9:53 PM 77.0 °F - 64.9 °F 66% 29.99 in 10.0 mi ESE 13.8 mph - N/A   Clear
10:53 PM 77.0 °F - 66.0 °F 69% 29.99 in 10.0 mi SE 13.8 mph - N/A   Partly Cloudy
11:53 PM 77.0 °F - 64.9 °F 66% 29.97 in 10.0 mi SE 13.8 mph - N/A   Clear